Location: Balsareny
(41.8670°N, 1.8830°E)
Time: 09:49:38
(UTC+01:00)

OTV 5 (USA 277) - Visible Passes

Search period start: 17 February 2019 00:00
Search period end: 27 February 2019 00:00
Orbit: 342 x 346 km, 54.5° (Epoch: 09 February)

Date Brightness Start Highest point End Pass type
(mag) Time Alt. Az. Time Alt. Az. Time Alt. Az.
17 Feb ? 05:36:34 16° SE 05:36:34 16° SE 05:37:15 10° SE visible
18 Feb ? 06:00:06 13° SSE 06:00:06 13° SSE 06:00:29 10° SSE visible
22 Feb ? 20:46:02 10° SW 20:46:12 11° SW 20:46:12 11° SW visible
23 Feb ? 19:35:25 10° S 19:37:49 24° SE 19:38:23 23° ESE visible
24 Feb ? 19:58:28 10° SW 20:01:20 89° N 20:01:55 53° NE visible
25 Feb ? 20:22:30 10° W 20:25:04 28° NNW 20:25:18 28° NNW visible
26 Feb ? 19:10:52 10° SW 19:13:45 86° SE 19:16:39 10° NE visible
26 Feb ? 20:47:21 10° WNW 20:48:33 14° NW 20:48:33 14° NW visible
